Location: Slemon Park
(46.4340°N, 63.8219°W)
Time: 10:03:42
(UTC-03:00)

ISS - All Passes

Search period start: 22 May 2015 00:00
Search period end: 01 June 2015 00:00
Orbit: 399 x 404 km, 51.6° (Epoch: 22 May)

Date Brightness Start Highest point End Pass type
(mag) Time Alt. Az. Time Alt. Az. Time Alt. Az.
22 May - 01:29:42 10° SSE 01:31:21 14° SE 01:33:06 10° ESE visible
22 May - 03:04:06 10° WSW 03:07:21 81° SSE 03:10:38 10° ENE visible
22 May - 04:40:57 10° WNW 04:44:00 34° N 04:47:03 10° ENE visible
22 May - 06:17:51 10° WNW 06:20:55 36° N 06:24:00 10° E daylight
22 May - 07:54:15 10° WNW 07:57:32 71° SSW 08:00:47 10° SE daylight
22 May - 09:32:10 10° WSW 09:33:29 12° SW 09:34:42 10° SSW daylight
23 May - 02:11:04 10° SW 02:14:12 47° SSE 02:17:22 10° ENE visible
23 May - 03:47:33 10° W 03:50:40 42° NNW 03:53:49 10° ENE visible
23 May - 05:24:34 10° WNW 05:27:34 32° N 05:30:34 10° ENE daylight
23 May - 07:01:03 10° WNW 07:04:19 72° NNE 07:07:36 10° ESE daylight
23 May - 08:37:57 10° W 08:40:29 21° SW 08:42:59 10° S daylight
24 May - 01:18:19 10° SSW 01:21:06 27° SE 01:23:56 10° E visible
24 May - 02:54:09 10° WSW 02:57:22 58° NNW 03:00:36 10° ENE visible
24 May - 04:31:13 10° WNW 04:34:11 31° N 04:37:10 10° ENE visible
24 May - 06:07:51 10° WNW 06:11:02 49° NNE 06:14:14 10° E daylight
24 May - 07:44:22 10° WNW 07:47:25 35° SW 07:50:26 10° SSE daylight
25 May - 00:26:03 10° S 00:28:02 16° SE 00:30:06 10° E visible
25 May - 02:00:50 10° WSW 02:04:05 89° WNW 02:07:22 10° ENE visible
25 May - 03:37:45 10° WNW 03:40:46 33° N 03:43:48 10° ENE visible
25 May - 05:14:35 10° WNW 05:17:41 38° NNE 05:20:47 10° E daylight
25 May - 06:51:00 10° WNW 06:54:14 62° SSW 06:57:28 10° SE daylight
25 May - 08:29:50 10° SW 08:30:08 10° SW 08:30:18 10° SW daylight
26 May - 01:07:40 10° SW 01:10:50 54° SSE 01:14:03 10° ENE visible
26 May - 02:44:15 10° W 02:47:21 40° NNW 02:50:27 10° ENE visible
26 May - 04:21:15 10° WNW 04:24:15 32° N 04:27:15 10° ENE visible
26 May - 05:57:41 10° WNW 06:00:58 80° NNE 06:04:14 10° ESE daylight
26 May - 07:34:43 10° W 07:37:04 18° SW 07:39:22 10° S daylight
27 May - 00:14:45 10° SSW 00:17:39 30° SE 00:20:34 10° ENE visible
27 May - 01:50:45 10° W 01:53:56 53° NNW 01:57:10 10° ENE visible
27 May - 03:27:49 10° WNW 03:30:47 31° N 03:33:45 10° ENE visible
27 May - 05:04:24 10° WNW 05:07:37 53° NNE 05:10:49 10° E daylight
27 May - 06:40:58 10° WNW 06:43:55 31° SW 06:46:51 10° SSE daylight
27 May - 23:22:14 10° S 23:24:28 18° SE 23:26:47 10° E night (unlit)
28 May - 00:57:19 10° WSW 01:00:34 81° NNW 01:03:50 10° ENE visible
28 May - 02:34:17 10° WNW 02:37:16 32° N 02:40:17 10° ENE visible
28 May - 04:11:03 10° WNW 04:14:10 39° NNE 04:17:16 10° E visible
28 May - 05:47:28 10° WNW 05:50:41 54° SSW 05:53:53 10° SE daylight
29 May - 00:04:01 10° SW 00:07:13 61° SSE 00:10:27 10° ENE visible
29 May - 01:40:41 10° W 01:43:46 38° NNW 01:46:51 10° ENE visible
29 May - 03:17:39 10° WNW 03:20:40 33° N 03:23:41 10° ENE visible
29 May - 04:54:04 10° WNW 04:57:21 88° NE 05:00:37 10° ESE daylight
29 May - 06:31:17 10° W 06:33:23 16° SW 06:35:26 10° S daylight
29 May - 23:10:56 10° SSW 23:13:55 35° SE 23:16:56 10° ENE visible
30 May - 00:47:05 10° W 00:50:16 49° NNW 00:53:27 10° ENE visible
30 May - 02:24:09 10° WNW 02:27:06 31° N 02:30:05 10° ENE visible
30 May - 04:00:41 10° WNW 04:03:55 58° NNE 04:07:08 10° ESE visible
30 May - 05:37:20 10° W 05:40:10 27° SW 05:42:59 10° SSE daylight
30 May - 22:18:13 10° S 22:20:39 20° SE 22:23:09 10° E visible
30 May - 23:53:32 10° WSW 23:56:47 73° NNW 00:00:03 10° ENE visible
31 May - 01:30:33 10° WNW 01:33:31 32° N 01:36:30 10° ENE visible
31 May - 03:07:17 10° WNW 03:10:24 42° NNE 03:13:31 10° E visible
31 May - 04:43:42 10° WNW 04:46:52 48° SW 04:50:00 10° SE visible
31 May - 21:26:24 10° SSE 21:27:25 11° SE 21:28:34 10° ESE daylight
31 May - 23:00:07 10° SW 23:03:20 70° SSE 23:06:35 10° ENE visible
